Dewpoint
9 9 10 10 10 10 10 10 10 10 9 9 9 9 9 9 8 6 6 7 7 7 6 5 5 7 8 9 8 9 9 9 9 9 8 6 4 2
8 8 8 9 9 8 9 10 10 10 10 10 9 9 9 8 8 7 6 7 8 8 7 6 5 6 8 9 8 8 9 9 7 9 8 6 4 1
1 4 4 5 7 8 8 8 9 10 10 9 9 8 9 9 9 8 8 8 8 7 7 7 6 7 8 9 9 8 8 8 7 8 7 4 3 1
-6 -5 -8 -1 3 2 5 8 8 8 8 9 8 9 9 9 9 8 8 8 7 7 6 6 6 8 9 9 8 8 7 6 8 7 5 3 1 1
-16 -16 -16 -16 -14 -10 -6 2 5 6 7 8 8 9 8 9 9 8 8 7 7 7 7 7 7 8 9 9 8 8 6 8 7 5 2 2 1 1
-22 -20 -19 -17 -16 -15 -16 -16 -12 -7 -0 3 6 7 8 8 8 7 8 8 8 8 8 8 8 8 8 8 7 7 8 6 4 2 2 2 2 2
-25 -24 -26 -29 -29 -24 -18 -17 -17 -15 -13 -6 -0 4 6 6 7 8 7 8 8 8 8 7 7 7 8 7 6 7 5 4 4 3 2 1 2 1
-22 -24 -26 -26 -22 -26 -15 -9 -13 -14 -12 -2 1 3 3 5 5 6 7 7 7 7 7 7 6 7 7 6 7 5 4 5 3 3 1 2 2 -0
-15 -17 -19 -16 -16 -12 -10 -11 -14 -8 -7 -3 -1 0 1 2 3 5 5 6 6 7 7 6 6 6 6 6 5 5 5 4 4 3 1 1 1 0
-8 -9 -10 -10 -11 -6 -9 -11 -13 -12 -10 -11 -6 -3 -1 0 2 3 4 4 5 6 6 5 6 6 6 6 6 6 5 5 4 3 0 0 0 0
-7 -7 -7 -7 -7 -12 -12 -12 -11 -11 -13 -14 -13 -7 -3 -3 -2 1 3 3 4 5 5 5 5 6 6 6 6 6 5 5 4 3 1 -0 0 0
-8 -8 -8 -7 -6 -7 -7 -6 -6 -8 -12 -16 -16 -21 -20 -19 -16 -7 0 1 3 4 4 4 5 5 4 5 5 5 4 4 4 4 1 -0 -0 0
-8 -8 -8 -8 -6 -7 -7 -7 -7 -7 -7 -7 -9 -18 -17 -10 -15 -8 -8 -0 1 3 4 4 5 4 4 4 4 3 3 3 2 3 1 -0 0 0
-7 -8 -8 -8 -8 -6 -6 -6 -7 -7 -8 -8 -7 -6 -5 -6 -6 -3 -5 -6 -2 1 3 4 4 4 4 3 4 4 2 3 3 3 0 -0 0 -0
-8 -8 -8 -8 -9 -10 -9 -8 -8 -9 -8 -9 -9 -9 -7 -6 -5 -6 -4 -2 -1 -1 1 2 3 4 4 3 4 4 3 2 2 2 0 -0 -0 -1
-8 -7 -7 -7 -8 -7 -7 -9 -10 -9 -8 -8 -9 -8 -9 -7 -7 -6 -5 -3 -2 -1 0 0 2 3 3 3 4 3 3 2 1 1 1 0 -0 -1
-7 -8 -8 -9 -9 -8 -8 -10 -10 -10 -9 -10 -10 -10 -9 -9 -6 -5 -5 -4 -3 -2 -1 -0 1 1 2 2 2 2 2 1 2 2 1 0 -0 -2
-9 -9 -10 -9 -9 -8 -10 -10 -10 -9 -9 -9 -10 -9 -8 -6 -6 -5 -5 -4 -4 -3 -2 -1 -1 -0 -1 -1 -0 1 1 2 1 1 0 0 -1 -3
-9 -9 -8 -8 -8 -9 -10 -10 -10 -10 -10 -10 -10 -9 -8 -7 -6 -6 -5 -5 -4 -4 -4 -3 -2 -1 -2 -3 -2 -1 0 1 0 0 -1 -1 -1 -4
-9 -9 -9 -9 -9 -10 -10 -10 -10 -10 -10 -10 -10 -9 -9 -8 -7 -6 -6 -5 -5 -5 -4 -3 -3 -2 -2 -3 -3 -2 -2 -0 -1 -1 -3 -3 -2 -9
-10 -10 -10 -10 -10 -11 -10 -10 -10 -10 -10 -10 -10 -10 -9 -8 -7 -6 -6 -6 -5 -5 -4 -4 -4 -3 -3 -2 -2 -4 -4 -4 -2 -2 -4 -3 -5 -12
-11 -11 -11 -11 -11 -11 -11 -11 -11 -11 -11 -11 -10 -10 -9 -8 -8 -7 -6 -6 -6 -5 -5 -5 -4 -4 -3 -2 -2 -3 -5 -6 -5 -4 -7 -7 -7 -15
-11 -12 -12 -12 -12 -11 -11 -11 -11 -10 -10 -10 -11 -10 -9 -9 -8 -7 -6 -6 -6 -6 -6 -5 -5 -5 -4 -3 -2 -4 -6 -7 -6 -7 -8 -8 -11 -17
Wind_Speed
16 18 23 29 39 39 42 41 43 35 35 43 38 39 38 30 29 30 30 32 31 31 32 35 35 44 36 41 37 35 33 34 31 30 29 29 26 24
14 14 15 17 16 16 21 37 44 48 38 24 31 38 40 37 32 31 32 32 31 31 34 39 45 46 42 42 43 40 40 41 36 34 32 31 28 25
19 19 19 19 19 19 21 19 30 40 37 41 41 41 43 39 40 44 37 35 34 33 33 37 40 41 40 44 47 43 39 37 37 36 34 30 29 24
19 21 21 22 24 25 23 17 16 12 18 41 38 33 30 38 38 39 40 43 43 43 42 42 45 43 44 47 48 43 39 39 36 32 32 30 27 24
20 19 20 20 21 22 24 26 28 28 25 20 20 29 29 34 39 41 47 49 49 52 47 44 46 45 42 47 43 41 37 40 34 32 30 29 27 24
20 21 21 21 22 23 24 23 24 27 27 27 26 19 23 25 26 33 35 34 34 35 39 41 40 36 39 42 41 37 38 34 33 31 30 29 27 25
22 20 21 23 23 22 23 24 25 26 26 25 26 25 24 23 28 26 31 31 32 33 32 30 30 40 46 39 37 39 35 35 31 30 30 30 26 25
22 23 23 22 21 22 21 22 23 24 25 24 24 23 23 23 24 26 31 33 34 31 30 30 34 44 41 40 41 42 39 34 31 29 29 28 27 24
21 22 22 20 21 21 21 22 23 22 21 21 24 22 23 24 24 26 29 32 33 36 31 36 37 41 41 42 44 42 38 35 32 28 28 28 27 25
18 18 18 19 18 20 25 26 26 26 25 26 26 26 26 26 25 21 24 32 33 33 33 41 43 47 46 44 43 41 38 35 32 28 28 30 28 26
15 15 16 17 16 22 24 26 28 28 30 29 28 27 27 28 29 30 34 27 37 38 36 39 46 47 49 47 47 44 40 36 33 30 28 30 30 25
15 15 15 15 15 19 22 24 26 28 29 32 35 35 32 32 32 32 29 31 34 39 38 40 45 47 44 52 50 47 41 37 36 31 29 29 29 26
20 19 17 17 20 23 23 25 26 28 29 30 33 32 33 31 29 30 31 36 31 43 41 37 45 47 46 29 51 49 47 43 38 34 33 32 31 27
22 20 21 23 25 24 24 25 26 28 30 26 27 28 27 29 31 27 32 33 35 35 39 47 45 46 51 44 32 43 49 47 44 39 36 34 32 27
24 24 24 25 28 30 27 27 29 27 28 30 32 35 33 30 31 34 33 34 35 35 32 43 46 43 45 51 53 46 53 53 49 43 38 36 34 31
27 26 27 29 28 26 25 29 29 26 25 27 30 32 34 32 36 33 35 33 33 33 35 37 44 48 45 48 49 48 46 52 54 46 39 36 34 30
28 30 30 29 29 23 23 27 27 28 27 28 31 34 34 33 31 29 31 31 33 32 34 34 38 42 45 47 47 45 49 53 47 46 43 38 35 31
31 32 33 31 27 25 27 30 30 28 29 31 34 30 28 30 33 32 28 28 29 31 31 34 40 40 41 40 43 46 47 48 45 41 42 41 38 32
27 27 26 24 24 26 28 30 32 31 30 31 33 32 27 31 30 30 26 27 25 27 30 35 38 42 38 31 35 36 47 46 44 39 37 44 39 34
22 22 24 25 24 27 30 30 31 29 28 32 32 31 28 28 31 29 24 23 23 24 28 32 36 44 44 41 34 37 38 40 40 42 40 39 33 30
25 27 27 28 29 29 28 29 29 28 28 30 30 29 26 25 29 27 22 19 17 21 29 32 32 39 40 35 33 32 26 24 32 36 38 39 37 35
28 27 28 28 28 29 29 28 28 27 27 27 28 27 22 25 27 25 21 18 14 19 24 23 24 30 30 29 32 33 31 26 25 26 26 33 42 36
27 29 31 30 29 29 29 28 27 25 25 26 27 23 22 26 25 23 19 15 12 17 17 18 20 24 26 27 27 30 32 31 30 28 25 27 27 26
Wind_Direction
258 270 269 270 270 274 269 259 255 253 248 247 238 237 244 249 251 258 259 256 252 248 251 267 273 266 265 264 261 251 240 231 246 258 269 278 278 281
287 292 287 285 284 293 293 283 269 250 251 238 234 240 248 252 256 255 257 257 253 254 261 269 275 272 260 256 257 251 241 236 255 256 264 272 273 276
301 295 298 299 298 304 284 305 265 244 242 262 265 261 254 249 251 258 259 252 254 260 267 263 273 268 261 255 252 246 238 240 251 249 261 266 270 270
300 300 304 297 290 296 298 300 287 328 306 259 263 252 240 255 250 258 258 260 261 264 268 269 273 264 262 254 244 239 235 243 242 249 257 260 265 266
304 303 306 308 303 302 299 292 291 295 295 309 301 264 271 257 260 264 265 267 266 268 268 266 269 263 257 244 234 228 235 231 237 251 255 259 261 260
300 302 302 303 304 303 305 306 297 293 292 293 286 298 287 280 275 275 259 266 270 268 264 264 261 256 247 214 227 231 220 234 242 248 253 257 257 259
302 301 301 301 302 301 302 299 299 299 300 299 293 291 291 295 290 281 281 271 275 270 264 259 248 229 220 231 225 222 229 234 239 247 253 252 251 257
305 304 305 307 304 304 307 305 300 298 294 297 296 296 293 287 290 292 281 278 267 264 258 251 236 231 228 217 219 227 229 232 238 245 248 242 245 253
304 306 309 310 312 314 301 295 296 298 293 293 292 289 293 291 286 290 291 280 278 269 256 237 232 222 223 225 228 228 230 233 237 244 247 242 244 251
312 313 310 307 310 305 303 307 303 301 295 288 286 285 282 275 263 268 280 282 278 274 258 226 227 226 227 230 233 235 235 235 239 244 242 237 241 247
309 303 301 305 306 300 308 307 302 296 293 291 285 282 282 279 271 267 263 272 262 262 255 235 230 228 227 230 233 235 235 234 240 246 244 237 238 241
305 304 300 301 301 311 317 316 312 311 308 300 296 292 288 284 278 268 262 268 263 255 254 240 235 234 225 228 230 232 231 229 234 240 242 235 237 238
306 304 301 300 303 312 313 308 310 310 306 300 300 300 299 296 284 274 266 262 266 259 254 254 246 234 226 224 227 228 229 226 226 230 234 232 233 236
307 304 300 302 306 308 308 311 308 308 309 312 309 303 304 298 294 287 279 267 264 266 260 254 251 244 234 225 223 225 222 224 226 228 229 228 231 231
307 307 305 307 310 310 309 311 315 318 312 309 303 301 295 288 292 286 288 275 269 267 255 251 252 250 241 235 228 225 213 218 222 222 221 224 229 225
304 295 293 297 299 299 294 303 312 313 308 302 303 299 298 297 294 298 285 279 281 270 259 254 248 250 241 239 237 230 219 209 215 216 218 223 224 222
301 298 299 301 301 301 299 304 308 312 311 308 307 306 304 297 301 298 290 276 272 269 267 259 249 240 236 235 227 227 216 214 212 213 212 216 219 218
294 292 293 295 294 295 300 303 307 307 307 307 307 309 303 309 307 306 292 283 275 268 261 256 236 222 222 225 228 228 217 211 208 210 211 211 212 210
290 292 291 293 294 296 299 303 304 305 304 301 305 309 300 310 310 311 292 283 277 270 258 251 240 227 208 206 210 214 209 204 196 199 207 211 208 207
290 290 293 294 292 293 298 298 299 301 300 301 305 304 298 303 313 316 300 286 279 270 255 250 239 227 211 201 190 193 202 203 196 196 194 205 205 205
301 297 293 292 293 294 293 295 299 300 300 303 303 302 300 304 312 318 305 291 282 271 252 243 232 221 209 206 184 178 184 203 201 197 193 192 192 193
299 296 295 294 295 295 296 297 299 299 301 306 310 308 299 303 312 319 313 296 292 264 255 249 235 212 208 197 188 181 176 176 180 189 199 199 194 191
297 292 294 295 293 293 292 292 293 294 297 301 306 307 301 301 313 319 311 301 281 254 250 239 213 206 210 206 205 185 174 169 170 175 187 193 200 200
Height
1448 1447 1446 1444 1443 1443 1443 1440 1440 1438 1435 1436 1440 1441 1445 1447 1451 1454 1454 1458 1459 1462 1463 1467 1468 1474 1476 1477 1478 1480 1481 1482 1483 1485 1486 1487 1487 1486
1442 1441 1440 1439 1437 1435 1435 1432 1431 1428 1425 1426 1429 1431 1435 1437 1442 1444 1446 1449 1451 1453 1454 1457 1459 1461 1464 1467 1469 1471 1473 1475 1477 1479 1480 1481 1481 1480
1438 1437 1436 1434 1432 1430 1428 1426 1422 1419 1417 1419 1421 1424 1425 1427 1430 1434 1438 1440 1440 1443 1445 1447 1449 1451 1452 1455 1458 1461 1464 1467 1471 1473 1474 1475 1475 1474
1434 1433 1432 1428 1426 1426 1424 1421 1419 1416 1416 1412 1412 1412 1413 1418 1421 1423 1426 1428 1428 1431 1435 1437 1437 1438 1441 1444 1446 1451 1456 1460 1463 1466 1468 1469 1469 1469
1431 1429 1428 1425 1422 1420 1418 1416 1414 1413 1410 1407 1405 1406 1410 1412 1413 1414 1415 1417 1418 1420 1421 1422 1424 1426 1430 1431 1437 1441 1447 1451 1455 1459 1461 1463 1462 1463
1427 1425 1423 1420 1418 1415 1413 1412 1410 1409 1406 1405 1404 1403 1403 1404 1404 1405 1404 1406 1405 1406 1408 1408 1411 1414 1419 1423 1429 1434 1438 1444 1448 1452 1454 1456 1456 1457
1422 1420 1417 1415 1413 1411 1409 1407 1405 1404 1402 1400 1399 1398 1398 1398 1398 1397 1397 1398 1398 1399 1399 1400 1403 1407 1411 1417 1422 1427 1431 1437 1441 1445 1447 1449 1449 1451
1416 1414 1412 1410 1407 1406 1405 1404 1402 1400 1397 1396 1395 1394 1395 1395 1393 1392 1392 1391 1391 1391 1393 1394 1398 1401 1404 1408 1414 1419 1424 1429 1433 1437 1440 1442 1443 1444
1412 1409 1407 1405 1403 1400 1399 1398 1396 1395 1393 1392 1389 1390 1389 1390 1389 1387 1386 1385 1385 1386 1386 1387 1392 1394 1399 1404 1408 1412 1417 1421 1425 1429 1432 1434 1438 1439
1409 1406 1404 1402 1400 1397 1393 1391 1390 1388 1387 1386 1384 1382 1381 1381 1382 1382 1381 1379 1378 1378 1382 1381 1384 1386 1391 1396 1401 1405 1411 1414 1417 1420 1423 1427 1430 1432
1406 1404 1401 1398 1396 1393 1389 1386 1383 1380 1379 1377 1375 1373 1373 1373 1373 1374 1373 1372 1370 1370 1373 1374 1376 1379 1383 1386 1391 1396 1402 1406 1409 1412 1416 1419 1423 1425
1402 1400 1398 1395 1392 1389 1387 1383 1379 1376 1371 1367 1365 1364 1364 1363 1364 1366 1366 1365 1365 1361 1363 1368 1368 1372 1374 1375 1380 1386 1392 1396 1400 1405 1409 1413 1416 1418
1395 1393 1392 1390 1387 1384 1382 1379 1375 1372 1367 1364 1360 1357 1354 1353 1354 1355 1356 1357 1355 1352 1353 1360 1359 1361 1364 1364 1369 1375 1380 1386 1391 1395 1400 1405 1408 1413
1391 1389 1386 1384 1381 1378 1376 1373 1369 1365 1360 1357 1354 1351 1349 1347 1346 1345 1345 1345 1345 1344 1345 1348 1347 1351 1353 1356 1360 1364 1370 1376 1381 1385 1392 1396 1402 1407
1387 1383 1380 1377 1374 1370 1368 1365 1362 1358 1355 1351 1348 1344 1342 1339 1337 1336 1334 1332 1331 1332 1334 1336 1337 1340 1342 1344 1346 1352 1357 1363 1370 1375 1381 1386 1392 1398
1382 1378 1375 1373 1371 1368 1365 1362 1358 1355 1352 1349 1345 1341 1336 1332 1328 1328 1324 1323 1320 1319 1321 1324 1327 1330 1332 1334 1338 1343 1347 1349 1357 1365 1371 1380 1386 1392
1376 1372 1368 1366 1363 1361 1359 1356 1353 1349 1346 1343 1339 1334 1328 1325 1321 1319 1316 1314 1312 1311 1311 1313 1316 1320 1323 1325 1329 1333 1337 1341 1348 1353 1362 1371 1380 1387
1370 1365 1362 1359 1357 1355 1352 1349 1346 1344 1340 1337 1332 1328 1323 1319 1314 1309 1307 1304 1303 1302 1302 1303 1307 1310 1314 1316 1321 1325 1331 1334 1339 1346 1355 1365 1372 1380
1363 1359 1356 1353 1351 1348 1346 1343 1340 1337 1334 1330 1326 1322 1318 1313 1308 1302 1298 1295 1293 1293 1294 1295 1297 1300 1303 1308 1312 1316 1322 1326 1331 1340 1348 1358 1364 1374
1356 1353 1350 1348 1345 1343 1341 1337 1334 1331 1327 1323 1319 1315 1311 1307 1302 1296 1291 1289 1287 1286 1286 1287 1289 1290 1294 1297 1301 1307 1315 1320 1324 1332 1340 1355 1361 1375
1350 1347 1345 1342 1339 1337 1334 1330 1327 1323 1320 1316 1312 1308 1304 1301 1296 1290 1286 1284 1282 1280 1280 1281 1283 1287 1288 1294 1297 1303 1309 1319 1320 1329 1335 1347 1357 1364
1344 1341 1338 1335 1332 1328 1325 1322 1319 1316 1313 1309 1305 1302 1299 1296 1291 1286 1282 1279 1277 1276 1276 1277 1278 1283 1287 1289 1292 1298 1310 1317 1322 1328 1337 1344 1348 1355
1337 1333 1330 1326 1323 1320 1317 1315 1312 1309 1307 1304 1301 1297 1294 1290 1287 1282 1279 1276 1275 1275 1274 1275 1278 1281 1283 1287 1293 1298 1306 1314 1317 1324 1335 1345 1349 1357